THOR ABLESTAR DEB, 264

Orbit data source: Space-Track

THOR ABLESTAR DEB, 264 is space debris in LEO originally from a launch on Thu, 29 Jun 1961 UTC launched from the Air Force Eastern Test Range (AFETR). Debris objects in space refer to the collection of defunct objects orbiting the Earth. Examples of debris include non-operational satellites, rocket bodies, and fragments generated from explosions, collisions, or faulty payload assembly.

Loading next visibility...
Identifier
264, 1961-015CL
Orbit
LEO
Country
Flag of USUS
Related business
Manufacturer
Unknown
Mission
Spacecraft
Bus & Motor
Unknown
Mass
Unknown
Launch date (UTC)
1961-06-29 (64 years ago)
Launch vehicle
Unknown
Launch site
Air Force Eastern Test Range (AFETR)
Object type
Payload
Rocket body
Debris
Shape & HBR
Unknown
Radar Cross Section
Medium (>0.1 m² and <1 m²)

Expand to show TLE details & history
Last TLE update: 1 day ago

TLE from 1 day ago
0 THOR ABLESTAR DEB
1 00264U 61015CL  25260.04694736  .00002363  00000-0  81494-3 0  9992
2 00264  66.5232 241.7805 0030580 230.7833 129.0552 14.37358823294370
Epoch: 2025-09-17T01:07Z
TLE epoch observation values (Epoch: 2025-09-17T01:07:36.251Z)
Latitude
-0.00005°
Longitude
-131.34908°
Altitude
783.148 km
Speed
7.456 km/s
True Right ascension
16h 07m 07s
True Declination
0° 00' 00"
Sunlit
Object was in daylight at epoch
Visualization orbit readout
Latitude
Unknown
Longitude
Unknown
Altitude
Unknown
Speed
Unknown
Apparent Right ascension
Unknown
Apparent Declination
Unknown
Sunlit
N/A
Visualization observer readout
Local Sidereal Time
19:56:58
Azimuth
Unknown
Elevation
Unknown
Doppler factor
Unknown
Orbital elements
Apogee altitude
787.474 km
Perigee altitude
743.783 km
Semi-major axis
7,143.765 km
Eccentricity
0.00306
Inclination
66.5232°
RAAN
241.7805°
Arg. of periapsis
230.7833°
True anomaly
129.32666°
Mean anomaly
129.0552°
Eccentric anomaly
129.191°
Mean motion
3.59462 °/min
Orbital period
100.15 mins
BSTAR
0.00081494
Loading maneuver chart data...
Computing Atmospheric mass density...

Documentation

Showing up to 5 results
|